Time,TemperatureF,DewpointF,PressureIn,WindDirection,WindDirectionDegrees,WindSpeedMPH,WindSpeedGustMPH,Humidity,HourlyPrecipIn,Conditions,Clouds,dailyrainin,SoftwareType,DateUTC
2013-02-26 14:22:00,32.6,24.0,30.14,SE,133,8.0,19.0,71,0.00,,,0.00,weatherlink.com 1.10,2013-02-26 19:22:00,
2013-02-26 14:37:00,32.8,25.0,30.13,NE,49,10.0,12.0,72,0.00,,,0.00,weatherlink.com 1.10,2013-02-26 19:37:00,
2013-02-26 14:52:00,32.9,24.0,30.12,East,92,3.0,13.0,70,0.00,,,0.00,weatherlink.com 1.10,2013-02-26 19:52:00,
2013-02-26 15:07:00,32.8,24.0,30.11,East,80,5.0,13.0,71,0.00,,,0.00,weatherlink.com 1.10,2013-02-26 20:07:00,
2013-02-26 15:22:00,32.6,24.0,30.11,NE,45,7.0,14.0,71,0.00,,,0.00,weatherlink.com 1.10,2013-02-26 20:22:00,
2013-02-26 15:37:00,32.6,24.0,30.11,ESE,107,3.0,14.0,71,0.00,,,0.00,weatherlink.com 1.10,2013-02-26 20:37:00,
2013-02-26 15:52:00,32.6,25.0,30.11,East,90,7.0,11.0,73,0.00,,,0.00,weatherlink.com 1.10,2013-02-26 20:52:00,
2013-02-26 16:07:00,32.8,25.0,30.10,ENE,67,3.0,12.0,72,0.00,,,0.00,weatherlink.com 1.10,2013-02-26 21:07:00,
2013-02-26 16:22:00,33.0,25.0,30.10,ESE,106,4.0,11.0,72,0.00,,,0.00,weatherlink.com 1.10,2013-02-26 21:22:00,
2013-02-26 16:37:00,32.7,25.0,30.10,ENE,57,7.0,11.0,73,0.00,,,0.00,weatherlink.com 1.10,2013-02-26 21:37:00,
2013-02-26 16:52:00,32.6,25.0,30.09,ENE,65,8.0,11.0,74,0.00,,,0.00,weatherlink.com 1.10,2013-02-26 21:52:00,
2013-02-26 17:07:00,32.4,25.0,30.09,East,88,6.0,12.0,74,0.00,,,0.00,weatherlink.com 1.10,2013-02-26 22:07:00,
2013-02-26 17:22:00,32.3,25.0,30.09,ENE,74,5.0,10.0,74,0.00,,,0.00,weatherlink.com 1.10,2013-02-26 22:22:00,
2013-02-26 17:37:00,32.1,25.0,30.08,ENE,75,7.0,13.0,75,0.00,,,0.00,weatherlink.com 1.10,2013-02-26 22:37:00,
2013-02-26 17:52:00,32.0,25.0,30.09,East,87,7.0,9.0,76,0.00,,,0.00,weatherlink.com 1.10,2013-02-26 22:52:00,
2013-02-26 18:07:00,31.9,25.0,30.08,East,98,7.0,14.0,75,0.00,,,0.00,weatherlink.com 1.10,2013-02-26 23:07:00,
2013-02-26 18:22:00,31.6,25.0,30.08,ENE,65,7.0,14.0,76,0.00,,,0.00,weatherlink.com 1.10,2013-02-26 23:22:00,
2013-02-26 18:37:00,31.2,25.0,30.08,ENE,75,8.0,13.0,77,0.00,,,0.00,weatherlink.com 1.10,2013-02-26 23:37:00,
2013-02-26 18:52:00,31.1,25.0,30.08,ENE,67,11.0,17.0,77,0.00,,,0.00,weatherlink.com 1.10,2013-02-26 23:52:00,
2013-02-26 19:07:00,30.8,25.0,30.09,ENE,67,5.0,13.0,78,0.00,,,0.00,weatherlink.com 1.10,2013-02-27 00:07:00,
2013-02-26 19:22:00,30.7,25.0,30.08,ENE,60,13.0,18.0,78,0.00,,,0.00,weatherlink.com 1.10,2013-02-27 00:22:00,
2013-02-26 19:37:00,30.4,24.0,30.09,ENE,69,0.0,11.0,78,0.00,,,0.00,weatherlink.com 1.10,2013-02-27 00:37:00,
2013-02-26 19:52:00,30.1,24.0,30.09,North,355,6.0,8.0,79,0.00,,,0.00,weatherlink.com 1.10,2013-02-27 00:52:00,
2013-02-26 20:07:00,29.9,24.0,30.08,NE,51,5.0,11.0,79,0.00,,,0.00,weatherlink.com 1.10,2013-02-27 01:07:00,
2013-02-26 20:22:00,29.8,24.0,30.07,ENE,57,4.0,13.0,80,0.00,,,0.00,weatherlink.com 1.10,2013-02-27 01:22:00,
2013-02-26 20:37:00,29.7,24.0,30.06,NE,47,9.0,15.0,80,0.00,,,0.00,weatherlink.com 1.10,2013-02-27 01:37:00,
2013-02-26 20:52:00,29.5,24.0,30.05,NE,55,7.0,12.0,80,0.00,,,0.00,weatherlink.com 1.10,2013-02-27 01:52:00,
2013-02-26 21:08:00,29.6,24.0,30.03,ENE,57,10.0,14.0,80,0.00,,,0.00,weatherlink.com 1.10,2013-02-27 02:08:00,
2013-02-26 21:38:00,29.9,24.0,30.02,North,360,6.0,15.0,80,0.00,,,0.00,weatherlink.com 1.10,2013-02-27 02:38:00,
2013-02-26 21:53:00,29.9,24.0,30.01,East,87,8.0,14.0,80,0.00,,,0.00,weatherlink.com 1.10,2013-02-27 02:53:00,
2013-02-26 22:08:00,30.1,25.0,30.00,ENE,74,9.0,14.0,80,0.00,,,0.00,weatherlink.com 1.10,2013-02-27 03:08:00,
2013-02-26 22:23:00,30.2,25.0,30.00,ENE,70,4.0,13.0,80,0.00,,,0.00,weatherlink.com 1.10,2013-02-27 03:23:00,
2013-02-26 22:38:00,30.2,25.0,29.99,East,80,7.0,12.0,80,0.00,,,0.00,weatherlink.com 1.10,2013-02-27 03:38:00,
2013-02-26 22:53:00,30.2,25.0,29.98,ENE,70,5.0,13.0,81,0.00,,,0.00,weatherlink.com 1.10,2013-02-27 03:53:00,
2013-02-26 23:08:00,30.0,25.0,29.97,ENE,70,5.0,13.0,81,0.00,,,0.00,weatherlink.com 1.10,2013-02-27 04:08:00,
2013-02-26 23:23:00,29.8,25.0,29.96,ENE,67,9.0,12.0,81,0.00,,,0.00,weatherlink.com 1.10,2013-02-27 04:23:00,
2013-02-26 23:38:00,30.0,25.0,29.96,ENE,59,2.0,12.0,81,0.00,,,0.00,weatherlink.com 1.10,2013-02-27 04:38:00,
2013-02-26 23:53:00,30.1,25.0,29.96,ENE,69,8.0,15.0,81,0.00,,,0.00,weatherlink.com 1.10,2013-02-27 04:53:00,